This is the latest recevied weather packets stored in our database for station/object W3AJR. If no packets are shown the sender has not sent any weather packets the latest 10 day(s).
| Time | Temp. | Humidity | Pressure | Rain* | Wind** | Luminosity | Snow |
|---|---|---|---|---|---|---|---|
| 1778229325 | 8.33° C | 68% | 1014 hPa | 0 mm | - | 0 W/m² | - |
| 1778229022 | 8.89° C | 68% | 1013.8 hPa | 0 mm | - | 0 W/m² | - |
| 1778228718 | 8.89° C | 66% | 1013.7 hPa | 0 mm | - | 0 W/m² | - |
| 1778228415 | 9.44° C | 65% | 1013.7 hPa | 0 mm | - | 0 W/m² | - |
| 1778228113 | 9.44° C | 63% | 1013.9 hPa | 0 mm | - | 0 W/m² | - |
| 1778227808 | 10° C | 63% | 1013.9 hPa | 0 mm | - | 0 W/m² | - |
| 1778227506 | 10° C | 63% | 1013.7 hPa | 0 mm | - | 0 W/m² | - |
| 1778227204 | 10° C | 61% | 1013.8 hPa | 0 mm | - | 0 W/m² | - |
| 1778226900 | 10° C | 60% | 1013.6 hPa | 0 mm | - | 0 W/m² | - |
| 1778226598 | 10.56° C | 59% | 1013.5 hPa | 0 mm | - | 0 W/m² | - |
| 1778226295 | 11.11° C | 60% | 1013.7 hPa | 0 mm | - | 0 W/m² | - |
| 1778225992 | 11.11° C | 58% | 1013.5 hPa | 0 mm | - | 0 W/m² | - |
| 1778225689 | 11.11° C | 56% | 1013.7 hPa | 0 mm | - | 0 W/m² | - |
| 1778225386 | 11.67° C | 56% | 1013.5 hPa | 0 mm | - | 0 W/m² | - |
| 1778225082 | 11.11° C | 59% | 1013.4 hPa | 0 mm | - | 0 W/m² | - |
| 1778224780 | 10.56° C | 60% | 1013.2 hPa | 0 mm | - | 0 W/m² | - |
| 1778224478 | 10.56° C | 60% | 1013.3 hPa | 0 mm | - | 0 W/m² | - |
| 1778224175 | 10.56° C | 61% | 1013.3 hPa | 0 mm | - | 0 W/m² | - |
| 1778223873 | 10.56° C | 61% | 1013.3 hPa | 0 mm | - | 0 W/m² | - |
| 1778223570 | 11.11° C | 61% | 1013.1 hPa | 0 mm | - | 0 W/m² | - |
| 1778223268 | 11.67° C | 59% | 1013.3 hPa | 0 mm | - | 0 W/m² | - |
| 1778222966 | 11.67° C | 56% | 1013.1 hPa | 0 mm | - | 0 W/m² | - |
| 1778222663 | 12.22° C | 54% | 1013 hPa | 0 mm | - | 0 W/m² | - |
| 1778222361 | 12.22° C | 53% | 1013 hPa | 0 mm | - | 0 W/m² | - |
| 1778222058 | 12.22° C | 53% | 1013 hPa | 0 mm | - | 0 W/m² | - |
* Rain latest hour (hover to see other rain measurements)
** Current wind speed in m/s (hover to see current wind gust speed)